Time,TemperatureF,DewpointF,PressureIn,WindDirection,WindDirectionDegrees,WindSpeedMPH,WindSpeedGustMPH,Humidity,HourlyPrecipIn,Conditions,Clouds,dailyrainin,SoftwareType,DateUTC
2013-10-10 00:00:00,66.1,64.6,29.95,N/A,-737280,0.0,0.0,95,0.00,,,0.00,Wunderground v.1.12,2013-10-10 04:00:00,
2013-10-10 00:08:00,66.1,64.6,29.95,WNW,288,0.0,0.0,95,0.00,,,0.00,Wunderground v.1.12,2013-10-10 04:08:00,
2013-10-10 00:18:00,66.1,64.6,29.95,WNW,288,0.0,0.0,95,0.00,,,0.00,Wunderground v.1.12,2013-10-10 04:18:00,
2013-10-10 00:28:00,66.0,64.5,29.95,WNW,288,0.0,0.0,95,0.00,,,0.00,Wunderground v.1.12,2013-10-10 04:28:00,
2013-10-10 00:38:00,65.9,64.4,29.95,WNW,288,0.0,0.0,95,0.00,,,0.00,Wunderground v.1.12,2013-10-10 04:38:00,
2013-10-10 00:48:00,65.9,64.4,29.95,N/A,-737280,0.0,0.0,95,0.00,,,0.00,Wunderground v.1.12,2013-10-10 04:48:00,
2013-10-10 00:58:00,65.6,64.4,29.95,WNW,288,0.0,0.0,96,0.00,,,0.00,Wunderground v.1.12,2013-10-10 04:58:00,
2013-10-10 01:08:00,65.5,64.3,29.95,WNW,288,0.0,0.0,96,0.00,,,0.00,Wunderground v.1.12,2013-10-10 05:08:00,
2013-10-10 01:18:00,65.5,64.3,29.95,WNW,288,0.0,0.0,96,0.00,,,0.00,Wunderground v.1.12,2013-10-10 05:18:00,
2013-10-10 01:28:00,65.3,64.1,29.95,WNW,288,0.0,0.0,96,0.00,,,0.00,Wunderground v.1.12,2013-10-10 05:28:00,
2013-10-10 01:38:00,65.4,64.2,29.95,WNW,288,0.0,0.0,96,0.00,,,0.00,Wunderground v.1.12,2013-10-10 05:38:00,
2013-10-10 01:48:00,65.4,64.2,29.95,N/A,-737280,0.0,0.0,96,0.00,,,0.00,Wunderground v.1.12,2013-10-10 05:48:00,
2013-10-10 01:58:00,65.4,64.2,29.95,WNW,288,0.0,0.0,96,0.00,,,0.00,Wunderground v.1.12,2013-10-10 05:58:00,
2013-10-10 02:08:00,65.4,64.2,29.95,WNW,288,0.0,0.0,96,0.00,,,0.00,Wunderground v.1.12,2013-10-10 06:08:00,
2013-10-10 02:18:00,65.3,64.1,29.95,WNW,288,0.0,0.0,96,0.00,,,0.00,Wunderground v.1.12,2013-10-10 06:18:00,
2013-10-10 02:28:00,65.3,64.1,29.95,N/A,-737280,0.0,0.0,96,0.00,,,0.00,Wunderground v.1.12,2013-10-10 06:28:00,
2013-10-10 02:38:00,65.3,64.4,29.94,WNW,288,0.0,0.0,97,0.00,,,0.00,Wunderground v.1.12,2013-10-10 06:38:00,
2013-10-10 02:48:00,65.1,63.9,29.94,WNW,288,0.0,0.0,96,0.00,,,0.00,Wunderground v.1.12,2013-10-10 06:48:00,
2013-10-10 02:58:00,65.1,64.2,29.94,WNW,293,0.0,1.0,97,0.00,,,0.00,Wunderground v.1.12,2013-10-10 06:58:00,
2013-10-10 03:08:00,65.0,63.8,29.94,WNW,286,0.0,0.0,96,0.00,,,0.00,Wunderground v.1.12,2013-10-10 07:08:00,
2013-10-10 03:18:00,64.8,63.6,29.94,WNW,286,0.0,0.0,96,0.00,,,0.00,Wunderground v.1.12,2013-10-10 07:18:00,
2013-10-10 03:20:00,64.8,63.6,29.94,N/A,-737280,0.0,0.0,96,0.00,,,0.00,Wunderground v.1.12,2013-10-10 07:20:00,
2013-10-10 03:28:00,64.8,63.9,29.94,WNW,286,0.0,0.0,97,0.00,,,0.00,Wunderground v.1.12,2013-10-10 07:28:00,
2013-10-10 03:38:00,64.7,63.8,29.93,WNW,286,0.0,0.0,97,0.00,,,0.00,Wunderground v.1.12,2013-10-10 07:38:00,
2013-10-10 03:48:00,64.6,63.7,29.93,WNW,287,0.0,0.0,97,0.00,,,0.00,Wunderground v.1.12,2013-10-10 07:48:00,
2013-10-10 03:58:00,64.6,63.7,29.93,N/A,-737280,0.0,0.0,97,0.00,,,0.00,Wunderground v.1.12,2013-10-10 07:58:00,
2013-10-10 04:08:00,64.4,63.5,29.93,WNW,282,0.0,0.0,97,0.00,,,0.00,Wunderground v.1.12,2013-10-10 08:08:00,
2013-10-10 04:18:00,64.3,63.4,29.93,WNW,282,0.0,0.0,97,0.00,,,0.00,Wunderground v.1.12,2013-10-10 08:18:00,
2013-10-10 04:28:00,64.2,63.3,29.93,WNW,282,0.0,0.0,97,0.00,,,0.00,Wunderground v.1.12,2013-10-10 08:28:00,
2013-10-10 04:38:00,64.1,63.2,29.93,WNW,282,0.0,0.0,97,0.00,,,0.00,Wunderground v.1.12,2013-10-10 08:38:00,
2013-10-10 04:48:00,64.1,63.2,29.92,N/A,-737280,0.0,0.0,97,0.00,,,0.00,Wunderground v.1.12,2013-10-10 08:48:00,
2013-10-10 04:58:00,64.1,63.2,29.93,WNW,290,0.0,0.0,97,0.00,,,0.00,Wunderground v.1.12,2013-10-10 08:58:00,
2013-10-10 05:00:00,64.2,63.3,29.93,WNW,293,0.0,4.0,97,0.00,,,0.00,Wunderground v.1.12,2013-10-10 09:00:00,
2013-10-10 05:08:00,64.2,63.3,29.93,WNW,290,0.0,0.0,97,0.00,,,0.00,Wunderground v.1.12,2013-10-10 09:08:00,
2013-10-10 05:18:00,64.4,63.5,29.93,NNW,329,0.0,0.0,97,0.00,,,0.00,Wunderground v.1.12,2013-10-10 09:18:00,
2013-10-10 05:28:00,64.4,63.5,29.93,NNW,333,0.0,1.0,97,0.00,,,0.00,Wunderground v.1.12,2013-10-10 09:28:00,
2013-10-10 05:38:00,64.4,63.5,29.93,NNW,338,0.0,5.0,97,0.00,,,0.00,Wunderground v.1.12,2013-10-10 09:38:00,
2013-10-10 05:48:00,64.5,63.3,29.94,NNW,329,0.0,2.0,96,0.00,,,0.00,Wunderground v.1.12,2013-10-10 09:48:00,
2013-10-10 05:58:00,64.4,63.2,29.94,NNW,331,0.0,1.0,96,0.00,,,0.00,Wunderground v.1.12,2013-10-10 09:58:00,
2013-10-10 06:08:00,64.4,63.2,29.94,NNW,338,0.0,6.0,96,0.00,,,0.00,Wunderground v.1.12,2013-10-10 10:08:00,
2013-10-10 06:18:00,64.2,63.0,29.94,NNW,330,0.0,0.0,96,0.00,,,0.00,Wunderground v.1.12,2013-10-10 10:18:00,
2013-10-10 06:28:00,64.2,63.0,29.94,NNW,330,0.0,0.0,96,0.00,,,0.00,Wunderground v.1.12,2013-10-10 10:28:00,
2013-10-10 06:38:00,64.2,63.0,29.94,NNW,338,0.0,1.0,96,0.00,,,0.00,Wunderground v.1.12,2013-10-10 10:38:00,
2013-10-10 06:48:00,64.1,62.9,29.95,NNW,330,0.0,0.0,96,0.00,,,0.00,Wunderground v.1.12,2013-10-10 10:48:00,
2013-10-10 06:58:00,64.0,62.8,29.95,NNW,330,0.0,0.0,96,0.00,,,0.00,Wunderground v.1.12,2013-10-10 10:58:00,
2013-10-10 07:08:00,63.9,62.7,29.95,NNW,330,0.0,0.0,96,0.00,,,0.00,Wunderground v.1.12,2013-10-10 11:08:00,
2013-10-10 07:18:00,63.9,62.7,29.95,NNW,330,0.0,0.0,96,0.00,,,0.00,Wunderground v.1.12,2013-10-10 11:18:00,
2013-10-10 07:28:00,63.9,62.7,29.95,NNW,338,0.0,2.0,96,0.00,,,0.00,Wunderground v.1.12,2013-10-10 11:28:00,
2013-10-10 07:38:00,63.8,62.6,29.95,NNW,330,0.0,0.0,96,0.00,,,0.00,Wunderground v.1.12,2013-10-10 11:38:00,
2013-10-10 07:40:00,63.8,62.6,29.95,N/A,-737280,0.0,0.0,96,0.00,,,0.00,Wunderground v.1.12,2013-10-10 11:40:00,
2013-10-10 07:48:00,63.8,62.6,29.95,NNW,330,0.0,0.0,96,0.00,,,0.00,Wunderground v.1.12,2013-10-10 11:48:00,
2013-10-10 07:58:00,64.1,62.9,29.95,NNW,330,0.0,0.0,96,0.00,,,0.00,Wunderground v.1.12,2013-10-10 11:58:00,
2013-10-10 08:08:00,64.5,63.3,29.95,NNW,330,0.0,0.0,96,0.00,,,0.00,Wunderground v.1.12,2013-10-10 12:08:00,
2013-10-10 08:18:00,65.1,63.9,29.96,NNW,330,0.0,0.0,96,0.00,,,0.00,Wunderground v.1.12,2013-10-10 12:18:00,
2013-10-10 08:28:00,65.2,64.0,29.96,NNW,338,0.0,2.0,96,0.00,,,0.00,Wunderground v.1.12,2013-10-10 12:28:00,
2013-10-10 08:38:00,66.8,65.3,29.96,NNW,332,0.0,0.0,95,0.00,,,0.00,Wunderground v.1.12,2013-10-10 12:38:00,
2013-10-10 08:48:00,68.0,65.9,29.97,NNW,332,0.0,0.0,93,0.00,,,0.00,Wunderground v.1.12,2013-10-10 12:48:00,
2013-10-10 08:58:00,68.3,65.9,29.97,NNW,338,0.0,4.0,92,0.00,,,0.00,Wunderground v.1.12,2013-10-10 12:58:00,
2013-10-10 09:08:00,70.6,67.2,29.97,North,351,0.0,0.0,89,0.00,,,0.00,Wunderground v.1.12,2013-10-10 13:08:00,
2013-10-10 09:18:00,71.4,67.3,29.97,NNW,344,1.0,1.0,87,0.00,,,0.00,Wunderground v.1.12,2013-10-10 13:18:00,
2013-10-10 09:28:00,72.1,68.0,29.97,North,9,1.0,1.0,87,0.00,,,0.00,Wunderground v.1.12,2013-10-10 13:28:00,
2013-10-10 09:38:00,73.1,68.7,29.97,North,9,0.0,0.0,86,0.00,,,0.00,Wunderground v.1.12,2013-10-10 13:38:00,
2013-10-10 09:48:00,73.4,69.0,29.97,North,0,0.0,5.0,86,0.00,,,0.00,Wunderground v.1.12,2013-10-10 13:48:00,
2013-10-10 09:58:00,74.6,69.1,29.98,North,5,1.0,2.0,83,0.00,,,0.00,Wunderground v.1.12,2013-10-10 13:58:00,
2013-10-10 10:00:00,74.5,69.0,29.98,North,0,1.0,9.0,83,0.00,,,0.00,Wunderground v.1.12,2013-10-10 14:00:00,
2013-10-10 10:08:00,75.1,69.6,29.98,North,355,2.0,2.0,83,0.00,,,0.00,Wunderground v.1.12,2013-10-10 14:08:00,
2013-10-10 10:18:00,76.0,69.4,29.98,NNW,344,1.0,1.0,80,0.00,,,0.00,Wunderground v.1.12,2013-10-10 14:18:00,
2013-10-10 10:28:00,76.6,70.0,29.98,North,351,1.0,3.0,80,0.00,,,0.00,Wunderground v.1.12,2013-10-10 14:28:00,
2013-10-10 10:38:00,77.1,68.9,29.98,NNW,333,2.0,2.0,76,0.00,,,0.00,Wunderground v.1.12,2013-10-10 14:38:00,
2013-10-10 10:48:00,77.4,68.9,29.98,NNE,19,3.0,4.0,75,0.00,,,0.00,Wunderground v.1.12,2013-10-10 14:48:00,
2013-10-10 10:58:00,77.4,68.5,29.98,NE,45,3.0,9.0,74,0.00,,,0.00,Wunderground v.1.12,2013-10-10 14:58:00,
2013-10-10 11:08:00,78.3,67.7,29.98,NW,305,3.0,3.0,70,0.00,,,0.00,Wunderground v.1.12,2013-10-10 15:08:00,
2013-10-10 11:18:00,78.9,69.1,29.98,NNE,28,2.0,2.0,72,0.00,,,0.00,Wunderground v.1.12,2013-10-10 15:18:00,
2013-10-10 11:28:00,79.0,68.4,29.98,ENE,68,2.0,10.0,70,0.00,,,0.00,Wunderground v.1.12,2013-10-10 15:28:00,
2013-10-10 11:38:00,78.4,69.4,29.98,ENE,57,3.0,3.0,74,0.00,,,0.00,Wunderground v.1.12,2013-10-10 15:38:00,
2013-10-10 11:48:00,78.3,69.3,29.98,NE,45,4.0,10.0,74,0.00,,,0.00,Wunderground v.1.12,2013-10-10 15:48:00,
2013-10-10 11:58:00,78.8,69.0,29.98,NNW,342,3.0,3.0,72,0.00,,,0.00,Wunderground v.1.12,2013-10-10 15:58:00,
2013-10-10 12:08:00,79.1,69.7,29.98,NNW,338,3.0,13.0,73,0.00,,,0.00,Wunderground v.1.12,2013-10-10 16:08:00,
2013-10-10 12:18:00,79.8,70.4,29.98,NE,46,3.0,6.0,73,0.00,,,0.00,Wunderground v.1.12,2013-10-10 16:18:00,
2013-10-10 12:28:00,80.0,70.2,29.98,NE,41,3.0,3.0,72,0.00,,,0.00,Wunderground v.1.12,2013-10-10 16:28:00,
2013-10-10 12:30:00,80.5,70.6,29.97,NE,45,2.0,9.0,72,0.00,,,0.00,Wunderground v.1.12,2013-10-10 16:30:00,
2013-10-10 12:38:00,80.3,70.0,29.97,NNW,340,3.0,3.0,71,0.00,,,0.00,Wunderground v.1.12,2013-10-10 16:38:00,
2013-10-10 12:48:00,80.0,70.6,29.97,NNE,29,3.0,3.0,73,0.00,,,0.00,Wunderground v.1.12,2013-10-10 16:48:00,
2013-10-10 12:58:00,80.2,69.5,29.97,North,360,4.0,4.0,70,0.00,,,0.00,Wunderground v.1.12,2013-10-10 16:58:00,
2013-10-10 13:08:00,80.2,69.5,29.96,NNE,23,4.0,11.0,70,0.00,,,0.00,Wunderground v.1.12,2013-10-10 17:08:00,
2013-10-10 13:18:00,80.5,69.4,29.95,NNE,24,3.0,3.0,69,0.00,,,0.00,Wunderground v.1.12,2013-10-10 17:18:00,
2013-10-10 13:28:00,80.5,69.4,29.95,ENE,61,4.0,4.0,69,0.00,,,0.00,Wunderground v.1.12,2013-10-10 17:28:00,
2013-10-10 13:38:00,80.3,68.8,29.95,NNE,23,4.0,10.0,68,0.00,,,0.00,Wunderground v.1.12,2013-10-10 17:38:00,
2013-10-10 13:48:00,80.1,68.6,29.94,NNW,335,5.0,5.0,68,0.00,,,0.00,Wunderground v.1.12,2013-10-10 17:48:00,
2013-10-10 13:58:00,80.5,68.5,29.94,NNE,27,3.0,3.0,67,0.00,,,0.00,Wunderground v.1.12,2013-10-10 17:58:00,
2013-10-10 14:00:00,80.5,68.1,29.94,NE,45,3.0,10.0,66,0.00,,,0.00,Wunderground v.1.12,2013-10-10 18:00:00,
2013-10-10 14:08:00,80.1,68.2,29.94,East,86,5.0,5.0,67,0.00,,,0.00,Wunderground v.1.12,2013-10-10 18:08:00,
2013-10-10 14:18:00,80.2,67.8,29.93,NE,37,5.0,5.0,66,0.00,,,0.00,Wunderground v.1.12,2013-10-10 18:18:00,
2013-10-10 14:28:00,79.9,68.8,29.93,NE,41,4.0,6.0,69,0.00,,,0.00,Wunderground v.1.12,2013-10-10 18:28:00,
2013-10-10 14:38:00,79.4,68.3,29.93,ENE,60,4.0,11.0,69,0.00,,,0.00,Wunderground v.1.12,2013-10-10 18:38:00,
2013-10-10 14:40:00,79.4,68.3,29.93,ENE,68,4.0,12.0,69,0.00,,,0.00,Wunderground v.1.12,2013-10-10 18:40:00,
2013-10-10 14:48:00,80.0,69.3,29.92,East,84,3.0,4.0,70,0.00,,,0.00,Wunderground v.1.12,2013-10-10 18:48:00,
2013-10-10 14:58:00,79.8,68.3,29.92,NNE,29,4.0,6.0,68,0.00,,,0.00,Wunderground v.1.12,2013-10-10 18:58:00,
2013-10-10 15:08:00,79.5,68.0,29.92,East,87,4.0,6.0,68,0.00,,,0.00,Wunderground v.1.12,2013-10-10 19:08:00,
2013-10-10 15:18:00,79.4,68.3,29.92,NE,34,4.0,4.0,69,0.00,,,0.00,Wunderground v.1.12,2013-10-10 19:18:00,
2013-10-10 15:28:00,79.5,68.4,29.92,ENE,68,4.0,12.0,69,0.00,,,0.00,Wunderground v.1.12,2013-10-10 19:28:00,
2013-10-10 15:38:00,79.7,68.6,29.91,NNE,19,4.0,4.0,69,0.00,,,0.00,Wunderground v.1.12,2013-10-10 19:38:00,
2013-10-10 15:48:00,79.8,68.7,29.91,NE,45,3.0,10.0,69,0.00,,,0.00,Wunderground v.1.12,2013-10-10 19:48:00,
2013-10-10 15:58:00,78.9,68.3,29.91,ENE,60,4.0,4.0,70,0.00,,,0.00,Wunderground v.1.12,2013-10-10 19:58:00,
2013-10-10 16:08:00,78.6,68.4,29.91,NE,44,4.0,4.0,71,0.00,,,0.00,Wunderground v.1.12,2013-10-10 20:08:00,
2013-10-10 16:18:00,78.9,68.7,29.91,NE,49,3.0,9.0,71,0.00,,,0.00,Wunderground v.1.12,2013-10-10 20:18:00,
2013-10-10 16:28:00,78.7,68.5,29.91,NE,40,4.0,6.0,71,0.00,,,0.00,Wunderground v.1.12,2013-10-10 20:28:00,
2013-10-10 16:38:00,78.6,68.0,29.91,NE,45,4.0,11.0,70,0.00,,,0.00,Wunderground v.1.12,2013-10-10 20:38:00,
2013-10-10 16:48:00,78.5,67.5,29.91,ENE,59,3.0,3.0,69,0.00,,,0.00,Wunderground v.1.12,2013-10-10 20:48:00,
2013-10-10 16:58:00,78.3,66.9,29.91,North,5,3.0,3.0,68,0.00,,,0.00,Wunderground v.1.12,2013-10-10 20:58:00,
2013-10-10 17:00:00,78.1,67.1,29.91,NE,45,2.0,9.0,69,0.00,,,0.00,Wunderground v.1.12,2013-10-10 21:00:00,
2013-10-10 17:08:00,78.0,67.4,29.91,NE,43,2.0,3.0,70,0.00,,,0.00,Wunderground v.1.12,2013-10-10 21:08:00,
2013-10-10 17:18:00,77.8,68.0,29.91,ENE,77,2.0,2.0,72,0.00,,,0.00,Wunderground v.1.12,2013-10-10 21:18:00,
2013-10-10 17:28:00,77.6,68.3,29.91,NE,40,2.0,4.0,73,0.00,,,0.00,Wunderground v.1.12,2013-10-10 21:28:00,
2013-10-10 17:30:00,77.6,67.9,29.91,NE,45,2.0,10.0,72,0.00,,,0.00,Wunderground v.1.12,2013-10-10 21:30:00,
2013-10-10 17:38:00,77.1,67.4,29.91,ENE,57,2.0,5.0,72,0.00,,,0.00,Wunderground v.1.12,2013-10-10 21:38:00,
2013-10-10 17:48:00,76.8,67.5,29.91,NE,43,2.0,2.0,73,0.00,,,0.00,Wunderground v.1.12,2013-10-10 21:48:00,
2013-10-10 17:58:00,76.5,67.2,29.91,East,88,2.0,2.0,73,0.00,,,0.00,Wunderground v.1.12,2013-10-10 21:58:00,
2013-10-10 18:00:00,76.5,67.2,29.91,NE,45,2.0,7.0,73,0.00,,,0.00,Wunderground v.1.12,2013-10-10 22:00:00,
2013-10-10 18:08:00,76.2,66.9,29.91,NNE,32,1.0,1.0,73,0.00,,,0.00,Wunderground v.1.12,2013-10-10 22:08:00,
2013-10-10 18:18:00,75.9,67.0,29.91,NE,40,0.0,0.0,74,0.00,,,0.00,Wunderground v.1.12,2013-10-10 22:18:00,
2013-10-10 18:28:00,75.6,67.1,29.91,East,83,1.0,1.0,75,0.00,,,0.00,Wunderground v.1.12,2013-10-10 22:28:00,
2013-10-10 18:38:00,75.3,67.2,29.92,East,82,0.0,0.0,76,0.00,,,0.00,Wunderground v.1.12,2013-10-10 22:38:00,
2013-10-10 18:48:00,75.2,67.1,29.92,East,90,0.0,2.0,76,0.00,,,0.00,Wunderground v.1.12,2013-10-10 22:48:00,
2013-10-10 18:58:00,74.4,67.1,29.92,East,82,0.0,0.0,78,0.00,,,0.00,Wunderground v.1.12,2013-10-10 22:58:00,
2013-10-10 19:00:00,74.4,67.1,29.92,N/A,-737280,0.0,0.0,78,0.00,,,0.00,Wunderground v.1.12,2013-10-10 23:00:00,
2013-10-10 19:08:00,74.1,66.8,29.92,East,82,0.0,0.0,78,0.00,,,0.00,Wunderground v.1.12,2013-10-10 23:08:00,
2013-10-10 19:18:00,73.7,66.8,29.92,East,82,0.0,0.0,79,0.00,,,0.00,Wunderground v.1.12,2013-10-10 23:18:00,
2013-10-10 19:28:00,73.2,67.0,29.92,East,82,0.0,0.0,81,0.00,,,0.00,Wunderground v.1.12,2013-10-10 23:28:00,
2013-10-10 19:30:00,73.2,67.0,29.92,N/A,-737280,0.0,0.0,81,0.00,,,0.00,Wunderground v.1.12,2013-10-10 23:30:00,
2013-10-10 19:38:00,72.9,67.1,29.92,East,82,0.0,0.0,82,0.00,,,0.00,Wunderground v.1.12,2013-10-10 23:38:00,
2013-10-10 19:48:00,72.2,67.1,29.92,East,82,0.0,0.0,84,0.00,,,0.00,Wunderground v.1.12,2013-10-10 23:48:00,
2013-10-10 19:58:00,71.5,66.8,29.92,East,82,0.0,0.0,85,0.00,,,0.00,Wunderground v.1.12,2013-10-10 23:58:00,
2013-10-10 20:08:00,71.4,66.7,29.92,N/A,-737280,0.0,0.0,85,0.00,,,0.00,Wunderground v.1.12,2013-10-11 00:08:00,
2013-10-10 20:18:00,70.3,66.2,29.92,East,82,0.0,0.0,87,0.00,,,0.00,Wunderground v.1.12,2013-10-11 00:18:00,
2013-10-10 20:28:00,70.3,66.6,29.92,N/A,-737280,0.0,0.0,88,0.00,,,0.00,Wunderground v.1.12,2013-10-11 00:28:00,
2013-10-10 20:38:00,69.3,65.9,29.93,East,82,0.0,0.0,89,0.00,,,0.00,Wunderground v.1.12,2013-10-11 00:38:00,
2013-10-10 20:48:00,68.8,65.7,29.94,East,82,0.0,0.0,90,0.00,,,0.00,Wunderground v.1.12,2013-10-11 00:48:00,
2013-10-10 20:58:00,68.5,65.8,29.94,East,82,0.0,0.0,91,0.00,,,0.00,Wunderground v.1.12,2013-10-11 00:58:00,
2013-10-10 21:08:00,68.4,65.7,29.94,N/A,-737280,0.0,0.0,91,0.00,,,0.00,Wunderground v.1.12,2013-10-11 01:08:00,
2013-10-10 21:18:00,67.8,65.4,29.94,East,82,0.0,0.0,92,0.00,,,0.00,Wunderground v.1.12,2013-10-11 01:18:00,
2013-10-10 21:28:00,67.6,65.2,29.94,East,82,0.0,0.0,92,0.00,,,0.00,Wunderground v.1.12,2013-10-11 01:28:00,
2013-10-10 21:38:00,67.5,65.1,29.94,N/A,-737280,0.0,0.0,92,0.00,,,0.00,Wunderground v.1.12,2013-10-11 01:38:00,
2013-10-10 21:48:00,67.0,64.9,29.94,East,82,0.0,0.0,93,0.00,,,0.00,Wunderground v.1.12,2013-10-11 01:48:00,
2013-10-10 21:58:00,66.9,64.8,29.94,N/A,-737280,0.0,0.0,93,0.00,,,0.00,Wunderground v.1.12,2013-10-11 01:58:00,
2013-10-10 22:08:00,66.5,64.7,29.95,East,82,0.0,0.0,94,0.00,,,0.00,Wunderground v.1.12,2013-10-11 02:08:00,
2013-10-10 22:18:00,66.3,64.5,29.95,East,82,0.0,0.0,94,0.00,,,0.00,Wunderground v.1.12,2013-10-11 02:18:00,
2013-10-10 22:28:00,66.2,64.4,29.95,N/A,-737280,0.0,0.0,94,0.00,,,0.00,Wunderground v.1.12,2013-10-11 02:28:00,
2013-10-10 22:38:00,65.9,64.1,29.95,East,82,0.0,0.0,94,0.00,,,0.00,Wunderground v.1.12,2013-10-11 02:38:00,
2013-10-10 22:48:00,65.7,64.2,29.95,East,82,0.0,0.0,95,0.00,,,0.00,Wunderground v.1.12,2013-10-11 02:48:00,
2013-10-10 22:58:00,65.6,64.1,29.95,N/A,-737280,0.0,0.0,95,0.00,,,0.00,Wunderground v.1.12,2013-10-11 02:58:00,
2013-10-10 23:08:00,65.2,63.7,29.95,East,82,0.0,0.0,95,0.00,,,0.00,Wunderground v.1.12,2013-10-11 03:08:00,
2013-10-10 23:18:00,64.9,63.4,29.94,East,82,0.0,0.0,95,0.00,,,0.00,Wunderground v.1.12,2013-10-11 03:18:00,
2013-10-10 23:28:00,64.8,63.3,29.94,East,82,0.0,0.0,95,0.00,,,0.00,Wunderground v.1.12,2013-10-11 03:28:00,
2013-10-10 23:38:00,64.8,63.3,29.94,N/A,-737280,0.0,0.0,95,0.00,,,0.00,Wunderground v.1.12,2013-10-11 03:38:00,
2013-10-10 23:48:00,64.5,63.3,29.94,East,82,0.0,0.0,96,0.00,,,0.00,Wunderground v.1.12,2013-10-11 03:48:00,
2013-10-10 23:58:00,64.4,63.2,29.94,N/A,-737280,0.0,0.0,96,0.00,,,0.00,Wunderground v.1.12,2013-10-11 03:58:00,